| time (UTC) | temp C | wind direction | speed KPH | gust KPH | rain 1hr cm | rain 24hr cm | rain mn cm | humidity % | barometer mb |
| 20260505040307 | 16 | 223 | 9.7 | 24.1 | 0.00 | 0.00 | 0.00 | 65 | 997.6 |
| 20260505030805 | 17 | 222 | 9.7 | 22.5 | 0.00 | 0.00 | 0.00 | 56 | 998.1 |
| 20260505030305 | 17 | 235 | 9.7 | 27.4 | 0.00 | 0.00 | 0.00 | 54 | 998.3 |
| 20260505020805 | 18 | 220 | 6.4 | 14.5 | 0.00 | 0.00 | 0.00 | 43 | 998.5 |
| 20260505010804 | 20 | 202 | 4.8 | 11.3 | 0.00 | 0.00 | 0.00 | 38 | 998.4 |
| 20260505010305 | 20 | 206 | 8.0 | 32.2 | 0.00 | 0.00 | 0.00 | 38 | 998.3 |
| 20260505000804 | 21 | 239 | 16.1 | 29.0 | 0.00 | 0.00 | 0.00 | 37 | 998.7 |
| 20260505000305 | 21 | 241 | 19.3 | 38.6 | 0.00 | 0.00 | 0.00 | 36 | 998.6 |
| 20260504230805 | 21 | 237 | 19.3 | 33.8 | 0.00 | 0.00 | 0.00 | 36 | 998.9 |
| 20260504230305 | 21 | 244 | 19.3 | 41.8 | 0.00 | 0.00 | 0.00 | 36 | 998.8 |
| 20260504220805 | 23 | 243 | 20.9 | 41.8 | 0.00 | 0.00 | 0.00 | 32 | 998.8 |
| 20260504220307 | 23 | 231 | 25.7 | 48.3 | 0.00 | 0.00 | 0.00 | 32 | 998.7 |
| 20260504210805 | 24 | 227 | 20.9 | 37.0 | 0.00 | 0.05 | 0.00 | 33 | 998.5 |
| 20260504200805 | 22 | 224 | 16.1 | 24.1 | 0.00 | 0.05 | 0.00 | 44 | 998.8 |
| 20260504200305 | 22 | 233 | 11.3 | 41.8 | 0.00 | 0.05 | 0.00 | 45 | 998.9 |
| 20260504190805 | 22 | 236 | 14.5 | 41.8 | 0.00 | 0.05 | 0.00 | 45 | 999.6 |
| 20260504190304 | 22 | 205 | 11.3 | 35.4 | 0.00 | 0.05 | 0.00 | 45 | 999.6 |
| 20260504180805 | 21 | 219 | 14.5 | 27.4 | 0.00 | 0.05 | 0.00 | 47 | 1000.4 |
| 20260504180304 | 21 | 203 | 14.5 | 35.4 | 0.00 | 0.05 | 0.00 | 47 | 1000.6 |
| 20260504170804 | 20 | 203 | 11.3 | 25.7 | 0.00 | 0.05 | 0.00 | 50 | 1001.1 |
| 20260504160304 | 20 | 226 | 11.3 | 32.2 | 0.00 | 0.05 | 0.00 | 51 | 1001.8 |
| 20260504150305 | 17 | 238 | 8.0 | 27.4 | 0.00 | 0.05 | 0.00 | 56 | 1002.3 |
| 20260504140805 | 16 | 236 | 9.7 | 19.3 | 0.00 | 0.05 | 0.00 | 57 | 1002.3 |
| 20260504140305 | 16 | 276 | 9.7 | 20.9 | 0.00 | 0.05 | 0.00 | 58 | 1002.4 |
| 20260504130305 | 13 | 243 | 9.7 | 25.7 | 0.00 | 0.05 | 0.00 | 64 | 1002.7 |
| 20260504120305 | 11 | 245 | 14.5 | 27.4 | 0.00 | 0.05 | 0.00 | 67 | 1003.3 |
| 20260504110305 | 10 | 244 | 9.7 | 27.4 | 0.00 | 0.05 | 0.00 | 72 | 1003.4 |
| 20260504100305 | 10 | 235 | 8.0 | 24.1 | 0.00 | 0.05 | 0.00 | 69 | 1003.2 |
| 20260504080805 | 11 | 237 | 8.0 | 16.1 | 0.00 | 0.05 | 0.00 | 68 | 1003.7 |
| 20260504080305 | 11 | 233 | 9.7 | 24.1 | 0.00 | 0.05 | 0.00 | 68 | 1003.7 |
| 20260504070305 | 11 | 244 | 11.3 | 29.0 | 0.00 | 0.05 | 0.00 | 66 | 1003.9 |
| 20260504050306 | 8 | 238 | 8.0 | 19.3 | 0.00 | 0.05 | 0.00 | 75 | 1005.1 |